Theta_e
322 323 324 327 328 331 333 332 331 328 326 321 322 320 319 327 326 323 320 318 318 319 321 321 323 324 324 323 323 323 325 327 329 330 331 328 320 320 323 322 326 325 327 328 328 327 324 326 327 327 328 328 329 330 331 331 330 333 334 335 335 335 336 336 336 336 336 337 336 337 336 335 335 335 334 334 334 334 334 334 335 336 337 338 339 340 340 340 340 340 339 339 339 339 339 339 338
325 328 328 329 329 333 336 332 328 326 323 318 320 322 322 325 322 322 320 319 319 319 321 320 321 323 323 322 322 322 325 325 324 327 325 320 318 320 321 322 324 324 326 327 327 326 323 324 325 326 327 328 329 329 330 330 330 332 333 333 333 334 335 335 334 334 334 334 334 334 333 332 332 332 331 331 331 332 333 332 333 334 335 336 338 340 340 339 340 340 339 339 339 339 338 338 338
327 330 330 330 330 332 335 331 326 322 320 317 318 324 325 323 320 323 322 321 321 320 321 320 320 321 321 323 322 321 325 323 321 321 319 318 319 319 321 322 322 324 324 325 326 325 322 322 323 324 327 327 326 327 327 328 328 329 330 330 330 331 332 333 333 332 332 332 332 331 331 330 330 329 329 330 330 331 332 331 331 332 332 333 335 337 339 339 339 340 339 339 339 338 338 337 337
326 330 331 331 334 332 332 332 329 323 319 317 316 323 325 323 323 323 322 322 322 320 320 319 319 319 320 322 321 320 324 323 321 321 319 319 319 319 322 321 321 323 323 323 323 322 321 321 321 322 324 323 322 322 323 324 325 325 326 327 328 328 329 330 330 330 329 329 329 329 329 328 328 328 327 327 328 328 329 329 330 330 330 331 332 333 335 336 337 337 338 337 338 338 337 336 336
325 330 328 329 336 332 330 331 329 326 322 318 316 322 323 322 324 322 321 321 320 320 319 319 319 319 319 320 320 322 324 322 322 321 318 317 317 319 321 319 319 320 320 322 321 320 319 320 320 319 320 319 318 319 319 320 321 322 322 323 324 325 326 326 326 326 326 326 326 326 325 325 325 325 324 324 325 325 326 326 327 328 329 329 330 331 331 332 333 333 334 334 335 335 335 334 334
325 328 325 327 333 329 329 327 324 323 323 322 319 322 322 321 323 321 320 319 319 319 319 319 319 319 319 319 319 321 322 322 321 320 317 314 315 318 319 317 318 318 319 321 320 318 318 319 318 317 317 316 316 316 316 316 316 317 317 318 319 320 320 321 321 321 321 320 320 320 319 319 318 318 319 319 320 321 322 323 323 324 325 326 327 328 328 329 330 330 331 331 332 332 332 332 331
326 329 327 328 330 325 327 325 321 321 322 324 321 322 322 321 322 321 319 318 318 317 318 319 319 319 319 319 319 319 318 320 321 319 318 314 314 317 316 314 316 317 318 319 318 316 316 317 315 314 314 313 312 311 312 312 311 311 311 311 311 311 312 312 312 311 311 311 310 310 309 309 309 309 310 312 314 315 316 317 318 319 320 321 322 323 324 325 326 326 327 327 327 328 328 328 328
326 330 330 329 330 326 325 322 321 322 322 323 321 322 322 321 322 321 320 319 318 318 317 318 318 318 319 319 320 318 316 319 319 318 318 315 314 316 314 313 314 314 316 316 315 316 315 314 312 311 310 309 308 308 308 307 308 307 306 306 305 304 304 304 303 303 303 303 302 302 302 301 301 302 303 304 305 307 308 309 310 311 312 313 314 315 316 317 318 319 320 320 321 321 322 322 323
324 329 329 327 328 327 325 324 322 323 324 323 321 322 322 321 321 321 320 319 318 318 317 318 318 317 318 319 321 317 315 317 317 315 315 315 315 314 312 312 312 312 314 314 314 314 313 311 309 307 306 306 306 306 306 306 305 304 304 303 302 301 300 300 299 299 299 299 299 299 299 298 298 298 299 299 300 300 301 302 302 303 304 304 305 306 307 308 309 309 310 311 313 313 314 315 317
324 327 327 327 327 325 323 323 323 324 325 323 321 320 320 321 320 320 320 319 319 319 318 318 317 317 318 319 322 318 316 315 314 313 313 314 315 312 310 309 310 310 311 312 313 312 310 308 305 304 304 303 303 303 303 302 302 301 301 301 300 300 299 299 298 298 298 298 298 298 298 297 298 298 298 298 298 298 298 298 298 299 299 299 299 299 300 300 301 301 302 303 303 304 305 306 308
327 326 325 326 324 322 320 320 324 326 324 322 321 319 319 320 320 319 319 319 319 319 318 318 317 318 317 317 322 318 314 314 313 312 311 312 313 311 308 308 308 308 309 310 310 308 305 304 302 302 301 300 300 300 300 300 300 299 299 299 298 298 298 297 297 297 297 297 297 297 297 297 297 297 297 297 297 297 297 297 297 297 297 297 297 297 297 297 297 298 298 298 298 298 299 299 300
328 329 327 324 322 321 322 322 323 326 325 323 321 318 319 319 319 319 319 320 319 319 318 317 317 318 317 318 321 316 313 313 313 312 311 311 311 310 308 307 307 306 307 307 306 303 301 300 299 299 298 298 298 299 299 299 299 298 298 298 298 298 297 297 297 297 297 297 297 297 296 296 296 296 297 296 297 297 296 297 296 297 297 297 297 297 297 297 297 297 297 297 297 297 297 297 297
326 329 328 326 326 325 325 325 324 326 325 324 321 319 319 319 319 319 319 320 319 320 318 317 317 317 318 319 318 314 313 313 312 311 311 310 309 308 308 307 306 306 306 304 303 301 299 299 299 298 298 298 298 298 298 298 298 298 298 298 298 297 297 297 297 297 297 297 296 296 296 296 296 296 296 296 296 296 296 296 296 296 296 296 296 296 296 296 296 296 296 297 297 297 297 297 297
326 327 326 327 327 325 325 324 324 324 322 322 319 317 318 318 319 319 319 319 319 319 318 317 317 317 317 319 319 316 314 313 311 310 310 308 307 307 306 306 305 305 304 302 301 300 299 299 299 298 298 297 298 298 297 297 297 297 297 297 297 297 297 297 296 296 296 296 296 296 296 295 296 296 296 296 296 296 296 296 296 296 295 296 295 295 295 295 295 295 296 296 296 296 296 296 297
326 328 325 325 323 322 324 324 324 323 321 321 318 317 318 318 318 319 319 319 318 317 317 317 316 317 317 318 320 317 314 312 310 309 309 307 307 305 305 304 304 304 302 300 300 298 298 299 298 297 297 297 297 298 297 297 297 297 297 296 296 296 296 296 296 296 295 295 295 295 296 296 295 295 295 295 295 295 295 295 295 295 295 295 295 295 295 295 295 295 295 295 295 295 296 296 296
324 327 326 324 322 321 324 327 325 323 322 321 317 317 317 317 317 317 317 316 317 317 317 317 316 316 316 317 318 316 313 311 309 308 307 306 306 305 304 304 303 302 300 300 300 298 298 298 298 297 297 297 297 298 297 296 296 296 296 296 296 296 296 296 295 295 295 295 296 296 299 299 296 294 295 295 295 295 294 294 294 294 294 294 294 294 294 294 294 295 295 294 295 295 295 295 295
323 325 326 324 323 321 325 328 324 323 323 319 316 316 317 317 316 315 314 313 315 317 317 317 316 316 315 316 315 313 311 309 308 307 306 305 305 305 304 304 302 301 300 300 300 299 298 298 298 297 297 297 298 298 297 296 296 296 296 296 296 296 296 296 296 296 296 295 296 296 298 299 296 294 295 295 294 294 294 294 294 294 294 294 294 294 294 294 294 295 294 294 296 295 295 295 295
324 326 325 322 324 323 324 326 322 322 323 319 316 316 317 317 316 314 314 314 314 315 316 316 316 316 313 312 313 312 309 308 307 306 306 305 305 305 304 303 302 301 300 300 300 300 299 299 298 298 297 297 298 298 297 296 296 296 296 296 296 296 296 296 296 296 296 296 295 295 296 296 295 294 294 294 294 294 294 294 294 294 294 294 294 294 294 293 294 296 295 294 295 295 294 294 294
324 327 325 323 325 324 323 322 320 320 320 319 318 317 316 317 317 314 314 316 315 314 315 315 316 316 312 310 312 309 307 307 306 306 306 306 305 305 304 303 302 302 301 300 300 300 300 299 299 298 297 297 297 297 296 296 296 296 296 296 296 296 296 296 296 296 296 295 295 295 295 295 295 294 294 294 294 294 294 294 294 294 294 294 294 294 294 293 294 294 294 294 294 293 294 294 294
323 324 324 325 324 323 322 320 319 319 318 318 318 318 317 317 317 314 314 316 315 315 315 315 315 316 313 310 310 308 307 307 306 307 306 306 306 305 304 304 303 303 302 301 300 301 300 299 299 299 298 297 297 296 296 296 296 296 295 295 296 296 296 296 296 296 295 295 295 295 294 295 295 294 294 294 294 294 294 294 294 293 293 293 293 293 293 293 293 293 293 293 293 293 293 293 294
323 322 322 324 322 322 321 319 319 318 317 317 317 317 317 317 316 314 314 316 316 316 315 316 315 315 314 311 310 308 307 307 306 307 306 306 306 306 305 305 304 303 303 302 301 301 300 300 299 299 298 297 297 296 295 295 296 296 295 296 296 296 296 296 295 295 295 295 295 295 294 295 296 294 293 294 294 294 294 293 293 293 293 293 293 293 293 293 293 293 292 292 292 292 292 293 294
322 322 322 321 320 321 319 317 317 317 315 315 315 316 316 316 316 315 315 315 316 316 317 317 316 317 315 312 310 309 308 307 307 306 307 307 307 306 306 305 305 304 303 303 302 301 300 300 299 299 299 298 296 296 296 296 296 296 296 296 296 296 295 295 295 295 295 295 294 295 295 296 296 295 293 294 293 294 294 293 293 293 293 293 292 292 292 292 292 292 292 292 292 291 292 292 293
320 321 320 320 319 319 318 318 317 316 314 315 314 315 316 316 316 316 316 315 315 316 317 317 317 316 315 311 310 310 309 309 307 306 307 307 307 307 306 306 305 305 304 303 302 302 301 300 300 299 299 298 296 296 296 296 296 296 297 295 296 296 295 295 296 296 295 294 294 295 295 295 295 294 293 293 293 294 294 293 293 293 292 292 292 292 291 291 291 291 291 291 291 291 291 291 292
319 319 318 319 319 319 318 318 316 315 314 315 315 315 315 315 315 315 315 315 315 316 316 316 316 314 313 312 310 311 311 309 308 307 307 307 307 307 307 306 306 305 304 303 302 302 301 301 300 299 299 298 297 297 297 297 297 297 298 296 297 297 295 297 297 295 294 294 294 294 295 294 294 293 293 293 293 293 294 293 293 292 292 292 291 291 291 291 290 290 291 291 290 290 291 291 291
318 318 318 318 319 318 318 318 316 315 314 314 315 315 314 314 315 315 315 315 315 316 316 316 316 314 315 313 311 311 311 310 309 308 307 307 307 307 307 307 306 305 304 303 303 302 301 301 300 300 299 298 297 297 298 297 296 298 299 296 297 298 297 298 296 294 294 294 293 294 294 294 293 293 293 293 293 293 293 293 292 292 292 291 291 290 290 290 290 290 290 291 290 290 291 291 292
318 317 317 317 317 317 317 317 316 315 314 314 315 314 314 314 314 315 314 315 315 316 316 316 316 315 315 314 312 311 312 311 309 309 308 308 308 307 307 307 306 305 305 304 303 302 301 301 300 300 299 298 297 297 298 297 296 298 298 296 297 297 297 297 295 294 295 294 293 293 293 293 293 293 293 293 293 293 293 292 292 291 291 291 290 290 290 290 290 289 290 291 291 291 292 292 292
316 316 316 315 315 315 316 316 316 316 315 314 314 314 314 314 315 315 315 315 316 316 316 316 316 315 314 314 313 312 312 311 310 310 309 308 308 307 307 307 307 306 305 304 303 302 301 301 300 300 299 298 298 297 297 297 297 297 296 296 296 296 296 296 294 295 295 295 293 293 293 293 293 293 292 292 292 292 292 291 291 291 291 291 290 290 290 289 289 289 290 291 291 291 292 292 293
315 315 314 314 315 315 315 315 316 316 315 315 314 314 314 314 315 314 315 316 316 316 316 316 316 315 315 314 313 313 312 311 310 310 309 309 308 308 307 307 307 306 305 304 303 302 301 300 300 299 299 298 298 296 297 298 298 297 296 296 296 295 295 294 294 295 294 294 293 292 292 292 293 293 292 292 291 292 291 291 291 290 291 291 289 289 290 289 289 289 290 291 291 291 291 291 292
314 314 314 315 315 315 316 315 316 316 315 315 314 314 314 313 314 314 314 315 315 316 316 316 317 316 316 314 313 314 312 310 310 309 309 309 308 308 308 307 307 306 305 304 303 302 301 300 300 299 299 298 298 297 297 297 297 297 296 296 296 295 294 294 294 294 294 293 292 292 292 292 292 292 292 291 291 291 290 291 290 290 291 290 289 289 289 289 288 289 290 290 290 290 290 291 291
314 314 314 315 315 316 316 316 317 316 315 315 314 314 315 314 314 314 314 315 315 315 315 316 317 316 316 315 314 313 312 311 310 309 309 310 309 309 308 308 308 307 305 304 303 302 301 300 299 299 299 298 298 297 297 297 297 297 296 296 295 294 294 294 294 294 294 293 292 292 292 292 292 292 292 291 291 290 290 290 290 290 291 289 289 289 289 288 288 289 289 289 289 290 290 290 290
314 315 316 317 316 316 318 318 318 316 314 314 314 313 314 315 315 315 315 315 315 315 315 315 316 316 316 315 314 313 313 311 309 310 310 310 309 309 308 308 308 307 305 304 303 302 301 300 299 298 298 298 298 297 297 297 297 297 296 296 295 294 293 294 294 294 294 293 292 292 291 291 292 292 291 291 291 290 290 290 290 290 290 289 289 289 288 288 288 288 289 289 289 290 290 289 290
315 316 318 319 317 317 318 318 317 316 313 312 314 314 314 314 315 317 318 316 316 315 315 315 315 315 314 314 314 313 313 311 309 309 310 310 310 309 308 308 308 307 305 304 303 302 301 300 299 298 298 298 298 297 297 297 297 296 296 295 295 294 293 294 295 294 294 293 293 292 291 291 292 291 291 290 290 290 290 290 289 289 289 289 289 288 288 288 288 288 289 289 290 290 289 289 289
318 317 317 320 319 317 318 317 315 316 314 312 314 315 315 314 315 318 318 316 316 315 315 315 314 314 314 314 314 313 313 312 310 309 309 310 310 309 308 308 307 307 305 304 303 302 301 300 299 298 298 298 297 297 297 297 296 296 295 295 295 294 294 295 295 294 294 293 293 292 291 291 291 291 290 290 290 290 289 289 289 289 289 289 289 288 288 288 288 288 289 290 290 289 289 289 289
320 319 318 319 319 317 318 317 315 316 315 313 313 313 313 314 315 317 317 317 316 315 315 315 315 314 314 314 314 314 313 313 312 309 309 310 309 309 308 307 307 306 305 304 303 302 301 300 299 298 298 298 297 297 297 296 296 295 295 295 295 294 294 295 295 294 294 293 292 292 291 291 291 290 290 289 289 289 289 289 289 289 289 289 288 288 288 288 288 289 289 290 289 288 288 289 289
318 318 316 317 318 317 317 317 316 315 315 314 314 313 313 313 314 315 315 316 316 315 316 315 315 314 314 314 314 315 314 313 312 309 308 309 309 309 308 307 306 306 304 303 303 302 301 300 299 298 298 297 297 296 296 296 295 295 295 295 294 294 294 294 294 294 293 293 292 291 291 291 291 290 289 289 289 289 289 289 289 289 289 288 288 288 288 288 288 288 289 288 287 287 288 289 289
317 317 316 317 317 317 317 317 316 315 315 315 314 314 314 314 314 315 314 315 315 315 315 315 314 314 314 314 314 315 315 315 312 309 309 309 309 308 307 306 306 305 304 303 302 301 300 299 298 298 297 297 296 296 296 296 295 295 294 294 294 293 294 294 294 293 293 292 292 291 290 290 290 290 289 289 289 289 289 289 289 289 288 288 288 287 287 288 288 288 287 287 288 288 288 289 289
318 319 318 319 318 316 316 317 317 314 314 315 315 314 314 314 314 314 314 314 315 314 314 315 314 314 314 313 315 315 315 317 314 309 308 308 308 308 306 305 304 304 303 302 302 301 300 299 298 298 297 297 296 296 296 295 294 294 294 294 293 293 293 293 293 293 292 292 291 291 290 290 290 289 289 289 289 289 289 289 288 288 288 288 287 287 287 287 287 287 287 288 288 288 288 288 288
318 319 319 318 318 317 316 318 316 313 314 315 315 315 314 314 314 314 315 314 314 314 313 314 313 314 314 314 315 314 318 322 316 310 308 307 307 307 305 304 303 303 302 302 301 300 300 299 298 298 297 297 296 296 295 295 294 294 294 293 293 292 293 292 292 292 291 291 291 290 290 289 289 289 289 289 289 288 288 288 288 287 287 287 287 287 287 287 287 287 288 288 288 289 289 288 287
320 320 320 318 317 317 317 318 314 310 313 315 314 314 313 314 314 314 314 314 314 314 314 314 314 314 314 314 315 316 323 323 314 311 308 305 305 305 304 303 302 302 301 301 301 300 299 299 298 297 297 296 296 296 295 295 294 293 293 293 293 292 293 292 292 291 291 291 290 290 289 289 289 289 288 288 288 288 288 288 288 287 287 287 287 287 286 286 287 287 287 287 288 289 288 288 288
320 319 318 317 317 319 317 316 313 310 311 314 314 314 313 313 313 313 314 314 314 314 315 316 316 316 315 315 316 319 325 319 312 311 309 305 304 303 302 301 301 301 301 300 300 300 299 298 298 297 297 296 296 295 295 294 294 293 293 293 293 293 293 292 292 292 291 291 290 289 289 289 288 288 288 288 288 288 288 288 287 287 287 287 286 286 286 286 286 286 287 287 288 288 288 287 287
319 321 318 316 317 318 317 318 318 315 313 314 315 314 313 315 315 315 315 315 314 314 315 316 316 317 316 317 319 321 324 318 312 310 309 306 303 301 300 300 300 300 300 300 299 299 299 298 298 297 297 296 295 295 295 294 294 294 294 294 294 293 292 292 292 292 292 291 290 289 288 288 288 288 288 288 288 288 288 288 287 287 286 286 286 286 286 286 286 286 286 287 287 287 288 288 287
316 321 321 318 317 317 319 322 322 322 319 316 317 317 315 317 318 318 318 317 316 315 315 315 315 316 316 317 318 320 324 318 312 310 308 306 303 300 299 299 299 299 299 299 299 299 299 298 298 297 296 296 295 295 294 294 294 294 294 294 293 293 292 292 292 292 292 291 289 289 289 288 288 288 288 288 288 288 288 287 287 287 286 286 286 285 285 285 285 285 286 286 287 287 288 288 287
315 323 328 321 319 321 324 323 322 324 322 317 319 320 317 316 316 317 318 319 318 316 316 316 315 315 316 316 316 322 326 319 313 311 308 306 303 300 299 298 298 298 298 299 298 299 298 298 298 297 296 296 295 295 294 294 294 294 294 294 293 293 292 292 292 292 291 290 289 289 289 289 289 288 288 288 288 288 287 287 287 287 286 286 285 285 285 285 285 285 285 286 286 287 287 287 286
319 325 328 321 319 322 323 322 323 324 320 318 321 321 318 316 314 316 317 317 318 316 316 316 316 315 315 315 315 323 327 319 315 313 308 306 304 301 299 298 297 298 298 298 298 298 298 298 297 297 296 295 295 294 294 294 294 294 294 293 293 293 292 292 291 290 290 290 290 290 290 289 289 288 287 287 287 287 287 287 287 286 286 286 285 285 285 284 284 285 285 285 286 286 286 286 286
321 322 321 320 320 319 319 320 322 321 318 319 322 320 318 316 314 316 316 315 316 315 315 316 315 315 315 316 316 323 327 320 315 314 310 307 303 300 299 298 297 297 297 297 297 297 297 297 297 297 296 295 295 294 294 294 294 294 293 293 292 292 292 291 291 291 291 291 291 290 290 289 288 288 287 287 287 287 287 287 287 286 286 286 285 284 284 284 284 284 284 284 284 285 285 285 286
320 321 319 320 320 317 317 318 318 318 317 319 323 321 317 315 316 318 316 315 315 315 314 314 314 314 315 317 318 323 327 321 317 315 311 306 302 301 300 298 297 297 297 297 297 296 296 296 297 296 296 295 294 294 294 294 293 293 293 292 292 291 291 292 292 292 292 291 290 290 289 288 288 287 287 287 287 287 287 287 286 286 286 285 285 284 284 283 283 283 284 284 284 285 285 285 285
318 319 318 319 320 316 316 316 315 318 318 317 321 320 316 316 319 319 317 316 316 314 313 313 314 314 315 318 322 326 326 323 319 316 312 306 302 301 300 298 297 296 296 296 296 296 296 296 296 296 295 295 294 294 294 294 293 293 292 292 292 292 292 292 292 291 291 290 290 289 288 288 287 287 287 287 287 286 286 286 286 286 286 285 284 283 283 283 283 283 284 284 284 284 284 284 284
318 318 315 319 322 319 317 316 317 320 319 318 321 320 318 317 317 316 316 316 315 314 314 314 316 316 316 322 327 327 324 322 320 318 314 309 304 301 298 296 296 295 295 295 295 295 295 295 295 295 295 295 294 294 294 293 293 292 292 292 292 292 292 292 292 291 290 290 289 288 288 288 287 287 287 287 286 286 286 286 286 286 285 284 283 283 283 283 283 283 283 283 283 283 283 283 283
319 319 316 319 321 320 321 321 323 323 319 320 324 321 319 317 315 316 316 316 315 314 315 316 319 317 320 331 332 326 325 323 320 318 315 310 306 302 297 294 294 294 294 294 294 294 294 294 295 294 294 294 294 294 293 293 293 292 292 292 292 292 292 292 292 291 290 290 289 288 288 288 287 287 287 286 286 286 286 286 286 285 284 284 283 283 282 282 282 282 282 282 282 282 282 282 283
315 318 319 322 322 320 321 323 326 324 320 320 321 322 322 317 315 318 316 315 316 315 316 320 322 319 321 333 332 325 325 323 318 316 314 308 305 302 297 293 293 293 294 294 294 294 294 294 294 294 294 294 294 294 293 293 292 292 291 291 291 291 291 291 291 290 290 289 289 288 288 288 287 287 286 286 286 286 286 285 285 284 284 283 282 282 281 281 281 281 281 281 282 282 282 282 282
311 315 318 321 322 318 318 321 321 321 320 319 318 322 322 315 316 320 317 315 316 315 318 321 323 320 323 332 332 326 323 319 315 313 311 308 305 300 295 294 293 293 293 293 293 293 293 293 293 293 294 294 293 293 293 293 292 292 291 291 291 291 291 291 290 290 290 289 289 288 288 288 287 287 286 286 286 285 285 285 285 284 283 282 281 281 281 281 281 281 281 281 281 281 281 281 281
314 315 316 318 320 318 317 320 319 318 321 319 317 321 319 313 315 318 316 316 316 315 317 319 320 320 323 328 330 328 322 316 313 311 309 309 305 298 294 294 294 293 293 293 293 293 293 293 293 293 293 293 293 293 292 292 292 291 291 291 291 291 291 291 290 290 289 289 289 288 288 287 287 286 286 285 285 285 285 285 284 283 282 281 281 281 280 280 280 280 280 280 280 280 280 280 280
316 316 318 318 320 320 319 321 319 317 319 318 316 318 317 312 315 316 314 315 315 315 316 315 316 317 320 324 328 329 322 314 311 310 307 307 305 299 295 295 294 293 293 293 293 293 293 293 293 292 293 293 293 292 292 292 291 291 290 290 290 290 290 290 290 289 289 288 288 288 287 287 286 286 285 285 285 285 285 284 284 282 282 281 281 280 280 280 280 279 279 279 279 279 280 280 280
318 319 320 318 320 321 319 320 321 320 320 318 315 316 314 313 316 318 316 314 314 314 315 314 315 316 318 323 328 329 323 315 310 308 306 305 305 301 296 295 295 294 293 293 293 293 293 293 292 292 292 292 292 292 292 291 291 290 290 290 290 289 289 289 289 289 288 288 287 287 287 286 285 285 285 285 285 285 285 284 283 282 281 281 280 280 280 279 279 279 279 279 279 279 279 279 279
316 317 318 318 320 322 319 318 319 320 318 316 315 315 313 313 314 315 315 315 313 313 314 314 313 316 318 322 326 326 322 317 311 308 306 304 304 301 296 295 296 295 294 293 293 293 292 292 292 292 292 292 292 292 291 291 290 290 290 289 289 289 289 289 288 288 288 287 287 286 286 286 285 285 285 285 285 285 285 284 282 281 281 281 280 280 279 279 279 278 278 278 278 278 278 278 278
312 312 314 315 316 320 321 319 317 317 316 315 315 315 314 314 314 314 315 315 314 313 313 314 313 315 319 322 323 324 323 321 316 310 307 304 303 300 296 295 296 295 295 294 293 292 292 292 292 292 292 292 291 291 291 291 290 290 289 289 288 288 288 288 288 287 287 287 286 286 286 285 285 285 285 285 285 285 284 283 281 281 281 280 280 279 279 278 278 278 278 278 278 278 278 278 278
313 313 314 314 313 315 318 318 317 316 316 315 315 315 314 314 315 316 317 314 313 313 314 315 317 317 318 321 323 324 324 322 318 313 309 306 303 299 295 295 296 295 295 294 293 292 292 292 292 292 291 291 291 291 291 290 290 289 289 288 288 288 287 287 287 286 286 286 286 286 285 285 285 284 285 285 285 284 283 281 281 280 280 280 280 279 278 278 278 277 277 277 277 277 277 277 277
315 313 313 314 314 315 316 317 317 316 316 315 315 316 314 313 315 316 316 314 313 315 317 319 322 321 322 323 325 326 325 323 320 315 311 308 306 301 296 295 295 294 294 293 293 292 291 292 292 291 291 291 291 290 290 290 289 289 289 288 288 287 286 286 286 285 285 285 285 285 284 284 284 284 285 285 284 283 281 280 280 280 280 279 279 278 278 277 277 277 277 276 276 276 276 276 275
Wind_Speed
4 4 3 4 5 7 5 2 1 2 2 4 6 3 2 3 4 3 3 3 1 1 3 2 3 3 3 2 3 3 4 3 1 2 1 4 11 11 11 12 11 13 13 10 8 6 8 10 9 8 8 8 7 7 6 4 4 6 7 6 6 6 6 6 5 4 5 4 5 5 4 4 4 4 5 5 6 7 7 6 7 6 6 6 7 7 7 6 6 6 6 7 7 6 6 6 7
4 4 4 4 5 4 2 1 1 3 3 4 4 1 4 3 3 3 3 4 2 3 5 4 5 5 4 4 4 3 4 5 4 3 3 10 12 10 13 13 12 14 14 11 9 6 8 9 9 9 8 8 8 7 7 6 6 7 7 5 5 6 6 6 5 5 4 3 2 2 1 2 3 3 3 4 5 6 6 5 5 4 4 4 4 7 7 7 6 6 7 7 7 6 6 7 7
3 2 5 5 4 3 2 0 2 3 3 4 1 2 4 3 4 4 4 6 6 6 6 5 4 4 3 2 2 2 1 3 7 5 5 12 10 9 14 14 12 14 14 11 10 7 7 9 8 8 9 8 7 6 6 6 5 5 5 3 3 3 5 6 6 5 4 4 3 1 1 2 3 3 4 4 4 5 5 4 4 4 4 3 2 3 5 5 6 6 6 5 5 5 6 6 7
2 0 5 6 3 3 2 1 3 3 5 3 1 1 2 3 6 7 7 7 6 6 5 2 1 2 2 2 1 2 3 3 7 7 5 8 8 12 15 14 12 13 14 9 8 7 7 8 7 7 8 7 5 5 4 4 4 4 4 3 3 3 2 2 2 1 1 1 1 1 2 2 3 3 3 4 4 4 4 5 4 4 4 3 2 3 3 4 4 4 4 4 4 4 5 6 5
1 2 4 5 2 1 1 2 3 3 5 4 1 1 1 4 8 8 6 5 4 4 4 2 1 1 1 1 2 1 3 3 7 9 8 8 10 16 16 14 12 12 13 9 7 7 8 8 8 8 7 7 6 6 6 6 6 6 5 5 4 4 3 3 2 2 2 2 2 2 2 2 2 2 3 3 3 3 3 3 3 3 3 3 3 3 3 4 5 5 5 5 6 6 7 8 8
3 3 4 3 1 0 1 3 4 5 5 4 2 3 2 4 9 9 6 5 5 5 3 2 2 1 0 1 2 2 2 4 7 8 10 13 13 16 15 14 12 13 13 11 9 7 9 10 9 10 9 9 9 8 8 7 7 7 6 6 6 5 4 4 3 3 2 2 2 1 1 1 1 2 2 2 2 2 2 3 3 3 3 4 3 3 4 5 6 6 7 8 8 9 10 10 11
4 3 3 2 2 0 1 4 4 5 3 3 2 3 3 7 8 9 7 4 3 3 1 1 3 1 1 3 3 3 3 5 8 6 12 16 16 16 16 14 13 13 11 11 10 7 10 11 11 12 11 11 11 10 9 9 8 8 7 6 6 5 5 4 3 3 2 2 1 1 1 1 1 1 1 1 2 2 2 3 4 4 4 5 5 5 5 6 7 8 9 9 10 11 11 11 12
3 1 1 1 2 1 3 5 5 6 2 1 2 3 4 7 8 7 6 3 2 4 2 2 4 0 1 3 1 2 4 5 9 10 13 17 18 18 15 13 14 14 11 10 10 9 10 12 13 13 13 12 11 11 10 10 9 8 7 6 6 5 5 4 4 3 2 2 1 1 0 0 1 1 1 2 2 2 2 3 4 4 5 6 6 6 7 7 8 9 10 11 12 12 12 12 13
3 2 1 1 2 2 4 5 6 7 3 3 4 3 2 5 6 5 6 4 3 4 5 6 5 3 2 3 1 2 5 8 12 13 14 16 18 18 15 13 14 15 13 11 10 10 12 13 15 14 14 13 12 11 10 10 9 8 7 7 6 5 5 5 4 3 3 2 1 1 1 2 2 3 2 2 3 3 3 4 4 5 5 6 6 7 7 8 8 9 11 11 12 13 13 13 14
3 3 1 1 2 3 5 5 5 4 2 3 4 4 2 4 4 4 6 5 6 5 6 7 5 5 2 3 2 1 8 14 16 14 14 16 19 19 16 14 15 15 14 12 11 12 13 14 14 13 13 12 11 10 10 9 8 8 7 7 6 5 5 5 5 4 3 3 3 3 3 4 4 4 4 4 4 5 5 5 6 6 6 6 7 7 7 8 8 9 10 11 11 12 13 13 14
1 3 1 1 3 4 5 4 4 1 4 3 3 5 3 3 3 3 4 5 7 5 6 7 5 7 5 3 1 3 13 18 17 17 16 18 20 19 18 16 15 14 14 13 12 12 14 13 12 11 10 9 9 9 9 8 8 7 6 6 5 5 5 5 5 5 5 5 5 5 5 5 6 7 7 7 7 7 7 7 8 8 8 8 8 9 9 9 9 10 10 10 11 11 12 13 13
1 2 2 2 4 4 5 4 5 3 2 3 4 5 4 4 3 4 5 4 6 7 6 7 3 3 5 4 2 7 16 17 17 19 19 20 20 18 18 17 16 15 15 14 12 12 13 12 11 10 8 8 8 8 8 8 7 7 6 6 6 5 5 5 6 6 6 6 6 6 6 6 7 7 7 8 8 8 8 8 8 8 8 9 9 9 10 10 11 11 12 12 12 13 13 13 13
2 3 1 3 4 4 5 5 5 5 3 1 3 6 4 4 4 5 5 5 6 6 6 9 2 1 5 2 1 6 12 16 17 19 20 20 19 17 16 17 17 16 16 15 14 13 13 13 12 11 10 9 8 8 8 8 8 8 8 7 7 7 7 7 7 7 7 7 7 7 8 7 7 7 7 7 7 7 7 7 7 7 7 7 8 8 9 10 10 11 12 12 13 14 14 14 15
2 3 1 3 4 5 5 4 5 4 3 1 3 4 4 3 4 4 4 5 5 2 3 9 5 2 4 2 1 4 9 17 19 19 19 18 18 17 15 16 17 16 16 16 15 14 13 13 13 12 12 11 11 10 10 9 8 8 8 8 8 8 9 9 9 10 10 10 10 10 10 10 9 9 8 8 7 7 7 6 6 6 6 6 7 7 8 8 9 10 10 11 12 13 13 14 14
2 3 2 3 4 5 4 5 3 2 1 3 1 2 3 1 1 2 4 3 3 1 1 6 5 3 2 3 3 3 14 22 20 20 19 17 17 17 15 16 17 16 17 16 16 16 15 14 14 14 13 13 12 12 10 9 8 8 8 8 8 8 9 9 10 10 11 11 10 10 10 11 10 10 9 9 9 8 9 8 8 9 9 9 9 9 9 10 10 10 10 11 11 11 11 11 12
1 3 2 3 4 5 3 3 0 1 1 3 2 2 3 1 3 1 1 0 1 1 0 2 5 2 1 1 2 9 21 24 21 21 19 17 17 16 15 15 16 17 17 17 16 16 16 16 15 15 14 13 13 12 10 9 8 8 8 8 8 8 8 8 9 10 10 9 10 10 11 10 9 9 9 9 10 10 11 10 11 12 12 12 12 12 13 13 13 13 14 13 13 13 13 12 13
0 1 2 3 4 5 2 3 1 1 1 4 4 3 4 3 2 1 1 1 3 2 3 3 5 4 1 3 9 18 25 23 22 22 20 18 17 16 14 15 16 17 19 18 17 17 17 17 16 16 15 14 13 11 10 9 9 9 8 8 7 7 7 8 8 8 8 8 9 10 9 7 6 8 8 9 9 10 11 11 11 13 13 13 13 14 15 16 15 16 17 17 16 16 16 16 15
1 2 3 4 5 5 1 2 2 1 0 2 5 5 4 3 3 2 2 3 5 4 6 5 6 4 4 9 16 23 25 24 25 23 20 19 17 16 16 18 18 18 20 21 19 19 19 19 17 17 17 16 14 12 10 10 9 9 8 8 7 6 6 7 6 7 7 7 8 8 7 5 5 7 7 8 9 10 11 12 12 13 14 14 15 15 17 17 17 17 19 18 17 17 18 17 17
3 3 3 5 5 4 1 3 3 2 3 2 3 6 5 4 5 3 1 5 6 7 8 6 9 6 7 11 18 23 24 24 24 23 21 20 20 19 19 20 21 20 22 24 22 21 21 20 19 18 18 17 15 13 12 11 11 10 9 8 8 7 6 6 6 6 6 6 6 7 6 4 5 7 7 8 9 10 11 12 13 13 14 15 16 16 17 18 18 18 18 19 19 19 20 20 19
4 3 3 6 4 4 3 3 3 2 4 4 3 3 4 5 2 4 3 6 7 10 9 7 11 10 9 10 16 21 21 22 23 22 21 22 22 21 21 22 24 24 25 26 24 22 22 22 21 20 19 18 16 15 13 13 12 11 10 9 9 8 7 7 6 5 5 5 5 6 5 5 5 6 8 8 9 10 11 11 11 12 13 14 15 15 16 17 17 17 18 19 20 21 21 21 21
3 4 5 7 3 3 4 4 4 4 5 3 6 1 2 5 2 4 4 6 8 10 10 11 13 14 12 11 15 19 19 19 21 21 21 22 23 23 23 24 26 25 24 24 25 25 24 24 23 22 21 19 18 16 15 15 14 12 12 11 10 9 8 7 7 6 5 4 5 5 5 6 5 6 7 8 8 9 10 11 11 12 13 14 16 16 17 18 18 18 19 19 20 21 21 21 20
2 5 7 9 7 5 2 4 4 4 3 1 5 5 3 3 4 6 6 8 9 6 6 8 10 12 13 15 15 16 16 16 18 20 21 22 24 24 23 23 24 24 23 25 27 27 26 25 25 25 23 21 19 18 17 16 16 15 14 13 11 10 9 8 7 6 5 4 4 5 5 6 4 5 7 7 7 8 9 11 11 13 15 16 17 18 18 19 19 19 19 19 20 20 20 20 19
3 6 8 10 10 7 3 2 2 1 1 4 4 4 2 2 5 6 9 15 13 6 3 1 1 1 9 17 15 14 15 14 17 21 24 25 26 27 26 24 25 26 26 27 28 28 28 27 26 27 25 23 22 20 19 18 17 15 14 14 12 11 10 8 8 7 6 5 4 5 5 4 2 3 5 6 7 8 9 11 12 14 15 16 17 18 19 20 20 20 19 19 20 21 20 20 20
4 6 8 10 8 7 6 0 4 3 5 6 2 3 2 6 6 4 12 18 14 10 8 2 4 6 9 14 13 14 16 16 19 26 28 29 30 31 29 27 26 27 28 28 27 28 29 29 28 28 27 25 24 21 20 20 18 16 16 15 13 12 11 10 9 7 6 6 5 5 4 4 2 2 3 5 6 8 9 10 12 14 14 15 17 18 19 20 20 20 18 19 20 21 20 20 20
7 8 9 7 4 5 6 3 5 6 6 5 3 4 7 9 5 7 18 17 11 10 10 7 5 6 8 11 13 13 14 15 19 23 26 27 28 28 28 27 25 26 29 29 28 28 30 31 29 29 28 27 25 23 22 20 19 19 17 16 15 13 12 12 11 8 7 7 6 5 4 4 2 1 2 3 5 7 8 10 11 12 13 14 16 17 19 20 20 19 19 19 20 21 20 20 20
4 6 7 6 6 6 7 7 7 7 5 4 5 10 10 8 4 10 21 18 12 10 10 9 7 7 8 10 12 13 13 14 16 20 24 25 25 25 28 28 27 28 30 29 29 29 30 31 30 30 29 28 27 25 22 19 20 20 18 17 17 15 14 14 11 9 9 8 7 6 5 4 3 1 1 2 4 6 7 9 10 11 12 12 15 17 18 19 19 20 20 19 20 21 20 20 20
1 4 7 8 11 10 8 10 9 7 6 7 9 10 10 5 3 10 16 11 9 11 11 11 9 9 10 9 10 12 13 15 19 20 19 20 23 26 29 30 30 29 29 30 31 30 30 32 31 30 29 28 27 26 23 21 21 20 19 19 18 17 17 14 12 12 11 10 8 7 6 5 3 2 1 1 3 4 6 8 9 10 10 11 14 16 17 18 19 20 18 17 19 19 19 20 19
4 5 8 10 11 12 12 13 11 7 6 9 9 8 8 3 4 14 16 4 3 9 11 11 11 11 10 10 10 9 11 16 21 19 16 20 25 28 29 33 34 30 30 32 32 30 31 32 32 30 29 28 27 26 24 22 21 20 21 20 19 19 18 15 14 14 13 11 9 8 7 5 4 3 2 0 2 3 5 6 7 9 9 10 14 16 17 18 19 18 16 15 17 17 18 18 18
4 3 7 13 12 12 15 14 12 8 5 7 7 4 8 9 12 19 19 9 5 7 9 10 11 11 10 10 10 9 10 15 18 19 22 27 30 31 32 35 36 32 31 32 31 31 32 32 32 31 29 28 27 26 25 24 22 21 22 21 21 20 18 17 17 15 15 13 11 10 8 7 6 4 2 0 1 3 4 5 7 8 9 11 14 16 17 17 17 17 15 16 17 17 18 19 19
5 3 5 10 9 10 14 13 11 9 5 8 8 3 7 11 17 19 17 12 9 9 9 9 9 9 9 8 9 10 11 12 15 21 28 31 31 32 33 34 36 34 31 30 31 33 32 32 32 31 30 30 29 27 27 25 23 23 22 21 22 21 19 18 17 16 16 14 12 11 9 8 6 4 3 1 1 2 4 5 7 7 9 11 14 15 16 16 16 16 16 17 18 18 19 20 20
4 5 5 5 4 7 8 4 9 9 4 9 8 5 7 9 13 16 16 11 10 11 11 10 9 8 8 9 10 11 11 13 19 26 29 31 31 32 33 33 34 35 32 32 34 33 33 33 33 33 32 32 30 28 28 27 25 24 22 22 22 20 20 19 18 17 16 14 13 12 10 8 7 5 3 2 2 3 3 4 5 6 9 12 14 15 16 16 16 16 16 17 18 18 20 21 21
3 2 4 5 4 7 7 2 12 10 3 7 8 4 8 10 13 10 10 10 11 11 11 9 10 10 10 10 11 12 11 14 20 25 28 30 30 30 32 32 33 36 35 34 34 33 33 34 34 34 33 33 31 28 28 27 25 24 23 23 22 20 20 19 18 17 15 14 13 12 10 9 7 5 4 2 2 3 3 4 5 7 10 12 14 15 16 16 16 17 16 15 17 19 21 22 22
4 5 6 6 5 8 6 2 8 8 5 7 10 5 6 8 10 4 2 9 11 10 10 10 11 11 12 11 10 11 10 11 14 19 24 28 29 29 30 31 33 36 37 35 35 35 35 34 35 35 34 34 32 29 27 27 25 24 23 23 21 21 20 18 18 17 16 15 14 13 11 9 8 6 4 3 3 3 3 4 6 8 11 13 14 16 16 16 16 17 17 15 16 20 22 22 22
4 5 5 7 8 8 5 2 4 6 7 7 11 9 11 10 8 5 2 7 9 9 10 10 10 10 11 11 10 10 10 12 12 14 23 27 28 28 29 31 33 35 36 35 35 36 35 35 35 35 34 33 32 30 28 27 25 24 23 22 21 22 21 19 19 18 17 17 15 14 12 9 8 6 5 4 3 4 4 5 7 9 12 14 15 16 15 15 15 14 15 16 17 19 21 21 23
5 6 5 6 7 7 9 5 2 8 6 6 8 10 16 15 11 11 11 9 9 10 10 11 12 12 14 13 12 10 10 13 12 14 24 28 28 28 28 30 31 32 33 33 34 35 34 34 35 34 33 32 32 30 29 27 25 24 23 22 21 22 21 20 20 19 18 17 16 16 12 9 9 8 6 5 4 5 5 6 8 10 12 13 14 15 15 15 14 13 15 19 19 19 18 20 21
10 10 7 7 7 8 13 9 4 9 6 7 11 11 16 16 12 12 14 12 12 12 10 11 12 13 14 13 12 10 11 13 11 17 26 28 29 29 28 28 29 31 31 31 33 34 33 34 34 33 33 33 32 31 29 28 26 25 24 23 23 23 23 22 20 20 19 18 18 17 13 10 10 9 7 6 5 5 6 6 8 9 11 12 13 14 14 14 14 15 17 18 19 19 20 19 19
12 11 9 8 8 10 14 10 4 9 6 8 12 13 15 16 13 12 12 12 13 13 11 12 12 13 14 14 12 12 13 9 9 18 25 28 28 28 27 27 28 29 30 31 33 33 34 35 35 34 34 34 34 34 32 31 30 29 26 26 26 25 25 24 22 20 20 19 19 17 13 11 11 10 8 7 6 6 6 6 7 8 10 11 12 13 14 14 14 16 16 16 17 18 21 21 19
11 9 7 8 8 10 14 9 4 6 4 7 10 10 14 15 13 11 11 12 14 14 14 15 15 15 15 15 14 12 7 3 8 12 17 23 25 25 26 27 29 30 30 31 34 34 34 35 36 36 35 35 36 36 35 34 33 32 30 29 29 27 26 26 25 22 21 20 19 17 13 12 12 11 9 8 7 7 6 6 7 8 9 10 12 13 13 14 14 14 14 16 16 16 20 21 20
9 7 5 7 8 10 12 6 2 3 2 5 8 9 12 14 13 13 13 15 15 15 16 17 16 16 15 14 13 10 4 5 7 9 11 17 22 25 26 27 30 31 31 32 34 34 34 35 36 37 37 37 36 36 36 34 32 31 30 28 27 26 24 24 23 22 21 21 19 16 13 13 13 11 10 9 8 7 7 7 7 7 9 10 12 13 13 13 14 14 13 13 15 16 19 20 16
7 6 6 8 9 8 7 4 2 3 5 5 7 8 10 13 13 14 17 18 17 16 16 16 15 15 16 15 12 8 7 8 8 9 9 12 17 22 25 26 29 30 31 32 34 35 35 36 38 38 38 38 37 36 35 33 30 27 25 24 24 24 23 22 20 20 21 21 19 17 15 15 13 12 11 10 9 8 8 7 8 8 9 10 11 13 13 14 14 14 12 11 13 16 18 19 16
8 7 8 10 11 11 10 6 2 4 5 3 5 8 9 10 12 13 12 14 14 13 12 13 13 16 16 13 11 8 8 10 10 11 10 10 13 19 23 26 29 31 32 34 37 38 37 38 38 39 38 38 36 35 34 32 30 28 25 24 24 23 22 23 22 22 23 21 19 18 16 16 15 13 12 10 9 9 8 8 8 9 9 10 11 12 13 13 13 13 13 13 14 16 17 19 19
9 7 11 15 14 13 12 8 5 3 4 1 2 7 8 7 10 11 5 6 9 8 10 12 12 16 15 10 10 8 8 10 11 12 12 11 11 16 21 25 28 31 34 36 38 39 38 37 38 38 37 37 36 35 34 34 34 34 33 31 30 27 25 27 28 28 26 24 21 18 16 16 16 14 12 11 10 9 9 9 9 9 9 10 11 12 13 13 13 13 13 13 15 15 16 17 19
9 4 6 10 10 9 9 6 2 1 5 2 3 3 9 7 7 9 6 5 8 7 9 12 11 13 13 11 10 7 8 9 10 10 11 12 12 14 18 25 31 32 34 35 36 37 37 36 37 37 37 37 36 35 36 37 36 37 37 36 34 32 30 29 30 29 26 24 20 19 18 17 17 15 12 11 10 9 9 8 9 10 10 10 11 12 13 13 13 13 12 13 15 15 16 17 19
7 2 1 1 3 5 4 3 4 3 4 3 5 4 9 13 6 9 10 8 8 8 9 12 12 12 12 13 11 6 9 10 10 10 11 12 13 15 19 26 31 32 31 33 35 36 37 36 36 37 36 36 36 36 38 39 39 38 37 35 33 33 31 29 27 25 23 22 21 21 21 19 17 15 13 11 11 10 9 8 9 10 10 11 11 12 13 13 13 13 13 14 15 16 17 18 19
4 1 1 3 1 1 1 2 4 3 4 4 5 7 6 15 6 7 10 10 10 11 12 13 13 12 12 12 12 8 9 10 10 11 12 12 13 17 22 26 28 29 30 33 35 36 36 36 36 36 36 37 37 38 39 39 39 38 38 35 32 30 28 26 25 25 24 24 25 24 22 20 17 15 13 12 12 11 9 9 9 10 11 11 12 13 13 13 13 13 14 15 16 17 17 17 18
4 2 3 4 2 1 2 3 2 2 5 6 6 7 4 15 7 6 7 8 10 11 11 12 13 13 11 9 11 9 8 8 9 9 10 11 13 18 21 23 26 29 31 33 34 35 35 36 36 36 37 37 37 38 39 39 38 37 37 36 33 30 27 26 27 28 28 27 27 25 23 20 18 16 14 14 12 11 10 10 10 10 11 11 12 13 13 13 13 13 14 14 15 16 17 17 18
3 3 2 2 1 1 1 2 1 1 9 7 10 13 9 10 5 7 7 7 10 10 8 9 10 12 11 8 9 9 7 7 7 8 8 9 12 18 20 22 26 28 29 31 33 35 36 37 37 37 37 37 38 39 40 39 38 38 37 37 34 32 31 31 31 31 30 29 28 26 24 21 18 16 15 14 13 12 11 11 11 11 11 12 12 12 12 12 12 12 13 13 15 16 17 17 18
3 4 2 1 3 2 2 1 3 2 10 5 11 15 13 11 5 3 5 7 10 10 9 10 11 11 11 8 8 7 7 7 7 8 8 8 10 14 17 20 24 27 29 32 34 35 36 37 38 37 36 37 38 39 40 40 39 39 38 37 37 35 35 35 34 33 32 31 30 27 24 21 19 17 16 15 13 12 11 11 11 11 12 11 11 11 11 11 11 13 14 15 17 17 17 17 17
3 5 4 1 3 2 1 2 2 5 10 5 11 12 11 13 9 4 6 6 9 10 9 11 11 10 9 7 6 6 7 7 7 8 8 8 9 10 12 17 22 26 30 33 35 36 36 37 38 38 39 39 38 39 40 40 40 40 39 38 37 37 36 36 36 35 34 33 31 28 26 24 22 21 19 17 15 13 12 11 11 12 12 11 11 11 12 13 14 15 16 17 17 17 17 17 18
7 6 6 5 4 3 4 4 3 7 9 5 7 9 6 9 6 10 13 11 11 11 10 10 9 10 9 6 7 6 7 7 7 8 8 8 9 9 11 16 21 25 29 32 33 35 36 37 39 40 40 40 39 40 41 41 41 40 39 38 37 37 37 37 36 35 34 33 31 29 28 26 24 23 20 17 15 13 13 13 13 13 14 13 14 13 14 14 14 15 16 16 17 16 16 17 18
9 6 5 6 5 3 4 5 7 8 6 4 3 5 4 4 2 11 16 15 14 11 10 9 9 9 6 5 7 6 7 7 7 7 8 8 9 9 11 16 21 24 28 30 32 34 35 37 40 42 41 41 42 41 41 42 42 41 40 39 38 38 37 36 36 35 34 33 31 29 28 26 24 22 20 18 16 16 15 15 15 16 16 15 14 13 13 13 13 14 14 15 16 16 16 17 18
6 4 3 6 5 4 5 7 9 5 5 5 4 4 6 5 6 9 11 11 12 11 10 10 10 9 6 6 6 7 7 7 7 7 8 8 8 9 12 16 20 24 27 30 32 35 37 38 41 42 43 44 44 43 43 43 42 40 40 40 39 39 38 36 35 34 33 32 31 29 28 26 24 22 21 20 19 18 17 17 17 16 15 14 13 12 12 12 12 13 15 16 17 16 16 17 17
2 4 5 6 3 5 6 8 7 3 5 9 6 6 8 8 11 12 12 12 10 9 10 11 12 12 8 7 7 7 7 7 8 8 9 10 9 11 15 19 21 24 28 31 35 37 40 40 40 41 41 41 43 44 43 42 41 41 40 40 40 40 39 38 37 36 33 31 29 28 27 26 25 23 22 21 19 18 17 17 16 16 15 14 13 12 12 12 12 13 15 16 17 16 16 17 18
5 3 5 2 2 1 3 2 3 3 7 9 8 12 11 9 10 4 6 12 12 10 12 14 15 12 8 8 8 8 8 8 8 9 9 9 10 10 15 21 24 26 28 31 35 37 38 38 38 39 40 42 45 46 44 43 42 42 41 41 41 40 40 39 38 37 35 32 30 29 27 26 25 24 22 21 19 18 17 17 16 16 15 13 13 12 12 11 12 13 14 15 15 15 16 18 18
5 2 2 2 0 2 2 2 2 5 7 7 10 14 12 12 12 7 3 10 13 13 15 15 14 10 7 8 9 8 7 7 8 9 8 9 10 11 15 20 24 26 28 30 32 33 35 37 37 38 40 43 44 44 43 42 42 42 41 41 41 40 40 39 38 37 35 34 33 31 29 27 26 24 22 21 19 18 18 17 16 15 14 13 12 12 12 11 11 12 14 15 15 15 16 18 19
1 3 4 1 2 3 3 3 3 5 7 8 10 13 12 10 8 8 8 11 12 13 13 12 11 9 8 8 8 8 6 7 8 9 9 10 11 12 17 21 24 27 28 28 29 31 34 36 36 37 38 38 39 41 43 43 43 42 40 40 41 40 39 39 38 37 36 35 34 32 31 28 26 24 22 21 20 19 18 17 16 15 14 13 12 12 11 11 11 13 14 15 16 16 18 20 21
3 1 3 3 2 1 1 3 3 5 6 7 7 10 13 7 2 3 7 10 12 12 10 9 8 8 8 8 8 8 8 8 9 9 10 11 11 12 17 23 24 25 26 27 30 31 32 33 34 36 37 37 39 42 43 43 43 42 41 41 41 40 39 38 37 37 36 35 34 32 30 28 26 24 23 21 20 19 18 17 16 15 14 13 13 12 11 11 12 14 15 17 17 18 19 20 21
7 7 8 8 7 4 3 7 7 5 5 6 6 9 14 7 4 3 5 9 10 10 8 7 7 8 8 8 9 9 8 9 9 10 10 10 10 11 15 19 21 22 25 28 30 31 31 33 35 36 37 39 41 42 43 44 42 41 41 41 40 39 38 38 37 36 36 35 33 32 30 28 26 24 23 21 20 19 18 17 16 16 15 14 13 12 11 12 13 16 17 18 18 18 19 20 21
Wind_Direction
54 24 12 345 317 318 300 240 281 245 211 257 258 213 103 81 112 132 137 97 89 115 76 72 41 40 86 28 328 36 51 34 43 155 196 138 143 148 132 118 118 116 115 110 95 92 108 104 91 86 81 82 82 83 90 99 103 88 84 87 84 82 78 81 86 86 82 81 80 73 64 59 57 55 47 40 36 39 37 37 42 40 36 37 33 19 7 5 4 358 356 358 354 347 342 339 336
73 352 315 311 291 296 308 165 281 256 217 249 263 136 112 106 126 145 153 130 83 76 68 52 33 50 61 7 328 357 50 47 76 106 102 132 137 150 144 125 123 121 114 118 119 115 115 111 103 100 91 93 95 91 94 92 97 90 89 103 96 86 87 86 84 84 85 85 85 73 32 12 13 9 9 14 23 38 34 26 28 21 21 36 45 32 22 17 13 9 3 3 360 350 344 337 330
112 290 286 290 262 239 298 312 262 284 279 266 343 73 131 124 123 96 83 93 85 87 74 55 38 39 10 315 321 350 104 78 93 95 113 146 144 157 157 130 125 128 119 124 133 136 124 119 122 111 97 101 105 102 101 99 111 111 112 137 127 106 98 91 87 86 87 84 74 47 12 1 1 5 11 13 23 32 17 0 0 352 350 359 6 20 22 18 19 21 18 16 8 350 343 337 330
129 149 294 295 258 206 262 216 236 279 284 285 42 121 144 123 113 88 77 83 85 104 95 80 83 39 333 258 319 31 129 93 95 109 130 160 160 164 160 130 127 133 120 124 147 150 133 130 138 124 111 120 135 136 139 146 162 163 166 181 182 185 166 142 128 115 104 75 12 331 338 349 354 4 12 11 13 9 355 343 342 335 330 331 320 329 338 336 347 357 1 4 354 340 336 329 326
67 18 292 301 304 212 290 248 258 250 258 293 59 136 99 107 110 99 94 89 84 96 100 134 133 57 66 238 318 37 134 98 95 104 118 139 150 159 152 130 131 130 121 125 150 158 147 147 147 143 141 145 157 158 164 168 171 177 180 185 187 195 198 206 215 226 238 256 279 300 319 331 349 358 7 11 9 4 1 351 346 339 331 328 328 339 334 318 313 315 317 320 320 320 325 321 318
351 323 258 275 282 350 330 266 271 251 255 309 41 108 100 96 105 109 104 84 71 62 64 133 116 55 110 124 57 70 145 138 114 110 134 146 154 158 144 133 137 133 133 144 157 157 150 156 154 151 153 153 156 155 158 162 165 170 170 176 180 185 189 196 203 213 225 234 255 268 291 310 344 1 14 21 21 19 15 6 359 352 343 337 335 343 346 338 325 317 313 310 309 309 315 317 317
317 316 222 222 255 125 265 261 266 269 290 338 30 69 79 98 109 119 125 112 86 77 31 156 109 51 234 135 83 85 118 136 140 150 160 160 161 155 142 141 144 138 142 164 179 171 157 159 159 157 157 154 153 153 154 154 157 158 160 164 164 169 173 178 186 190 199 206 221 236 260 294 349 31 41 43 37 28 17 11 4 357 353 346 343 341 341 342 335 329 324 321 319 318 317 317 317
279 309 132 228 259 173 232 255 258 266 271 75 69 42 47 108 129 134 153 168 144 156 178 163 117 79 227 152 218 158 130 129 148 157 160 164 164 155 147 149 148 144 151 177 191 181 171 164 161 160 157 155 151 150 149 150 152 152 153 153 154 155 158 162 168 172 175 181 188 217 272 3 34 57 54 54 45 35 24 16 9 2 359 352 348 346 342 341 337 331 326 325 324 324 323 320 319
224 221 37 2 258 232 241 242 247 255 204 126 103 79 23 117 145 152 165 161 134 167 171 167 150 150 171 159 217 167 143 136 141 149 160 166 165 156 147 155 159 156 163 182 193 181 177 169 164 162 158 156 153 151 150 150 150 149 151 149 151 145 145 150 150 153 147 134 119 79 45 42 46 58 54 48 40 33 29 24 20 12 6 360 354 350 347 343 340 334 329 326 324 323 323 321 319
198 203 272 328 256 264 258 246 247 253 124 85 97 130 145 132 164 177 177 163 146 164 159 156 173 195 206 175 179 199 166 154 148 151 163 166 163 158 152 166 174 167 168 181 191 182 179 174 168 165 161 161 158 159 158 156 154 152 154 151 150 143 139 137 133 129 120 108 93 79 67 63 58 61 59 55 49 40 35 30 28 24 20 14 8 1 357 351 344 339 334 330 328 325 323 321 319
207 194 214 287 261 257 257 276 298 314 107 104 107 125 134 144 195 201 201 188 151 143 136 141 187 217 235 237 220 136 154 160 163 160 165 166 164 163 161 170 175 173 174 179 189 182 178 178 175 173 170 170 169 169 168 168 168 166 167 162 156 149 142 131 125 117 109 101 91 83 74 68 60 58 57 56 54 49 45 40 35 31 27 21 15 10 5 360 354 347 343 338 335 332 329 327 323
254 218 172 239 257 259 277 311 318 339 94 170 153 131 130 155 204 214 207 211 157 143 153 164 174 199 212 241 239 140 153 170 173 167 169 167 165 170 172 173 171 177 182 178 182 179 179 182 182 183 180 182 182 183 186 184 185 185 183 180 173 163 148 134 124 115 108 101 95 89 83 78 72 67 63 61 58 55 49 46 43 36 29 23 17 10 5 0 356 352 348 346 343 341 339 337 334
243 272 213 247 259 272 294 307 308 324 314 261 134 129 135 163 199 218 209 223 188 168 179 182 153 105 210 244 132 153 166 178 173 170 170 166 168 171 178 179 176 183 184 180 183 182 183 189 189 190 187 189 193 196 199 196 195 191 186 181 174 164 152 142 133 126 121 114 110 105 102 98 92 89 84 79 74 70 62 55 50 42 36 27 20 14 7 2 356 354 349 347 346 345 344 343 343
263 293 315 274 285 284 289 282 286 305 295 41 70 114 143 183 201 219 227 237 213 198 188 178 149 80 240 255 177 195 179 174 170 171 166 164 170 168 178 183 183 187 184 184 189 187 187 193 194 194 193 193 199 200 199 197 193 185 177 170 162 155 146 138 133 128 124 120 117 115 113 108 103 99 95 92 86 81 76 66 61 53 44 35 27 22 14 9 4 360 355 353 350 348 348 346 345
297 310 311 270 285 281 271 255 268 293 286 91 79 132 161 201 73 251 246 239 225 307 67 161 149 118 225 223 220 174 160 166 166 167 162 164 170 168 179 185 186 189 185 188 192 191 191 197 195 193 196 195 200 202 198 193 184 177 167 160 153 144 135 127 122 116 111 109 108 107 101 91 86 85 82 80 75 68 63 54 51 47 41 37 33 30 25 23 20 16 12 9 6 4 2 358 357
271 320 290 260 272 272 249 227 297 285 251 117 187 157 160 187 82 255 244 77 246 209 286 179 183 194 301 219 181 134 148 161 160 160 160 162 168 171 183 186 189 192 188 189 195 196 195 200 197 194 196 194 202 202 196 191 180 173 165 158 149 137 127 118 112 107 102 99 92 83 76 67 58 61 59 57 56 51 48 41 40 42 37 37 35 34 32 29 27 25 23 21 20 20 18 17 15
192 312 248 261 259 264 246 198 150 216 185 123 192 177 181 208 122 178 122 244 251 179 214 212 203 233 319 126 141 139 147 156 155 157 159 160 166 173 183 187 191 196 194 192 197 197 196 201 199 197 196 194 204 206 196 192 184 177 171 163 149 137 128 119 115 112 108 103 92 83 83 81 60 54 48 46 47 44 43 37 37 38 33 34 32 32 30 25 25 24 22 23 21 17 17 18 14
179 205 226 247 248 253 283 320 357 77 5 129 178 190 217 221 167 153 100 236 243 229 233 214 213 215 122 128 140 143 151 155 157 161 162 166 172 177 186 190 192 198 200 198 199 200 198 200 198 199 199 198 205 208 200 193 190 184 176 168 154 146 140 133 127 120 114 111 105 97 98 99 76 60 51 46 43 40 38 33 32 29 25 26 26 25 23 20 22 20 17 18 17 11 11 12 9
202 238 251 244 260 265 258 332 353 25 326 326 170 186 222 224 168 141 182 228 214 231 242 217 223 206 129 137 144 147 154 158 164 169 170 177 182 184 188 191 194 198 202 201 201 203 203 200 198 202 203 203 206 206 201 196 195 190 179 173 165 161 159 152 142 132 123 121 113 102 98 92 75 59 49 42 39 36 33 29 26 23 19 20 20 20 19 17 18 17 13 12 11 8 8 7 4
214 226 257 252 279 313 307 337 347 4 354 319 280 181 194 242 179 122 219 249 224 226 230 209 223 217 176 160 153 154 161 166 174 179 182 188 190 191 190 191 195 198 202 203 201 202 204 203 200 204 207 205 206 203 199 197 196 192 184 179 177 174 170 164 155 147 136 130 118 105 98 86 69 52 46 41 37 35 33 28 22 19 18 19 18 18 17 15 15 14 11 9 8 6 5 3 1
218 194 233 262 284 318 327 21 22 21 36 324 296 309 200 246 224 157 201 255 246 232 227 215 218 218 193 167 165 166 169 175 182 188 191 193 195 198 197 197 199 200 202 201 201 202 202 205 201 203 208 204 204 202 197 197 195 193 189 184 184 181 178 174 165 160 150 138 124 111 93 76 60 42 44 42 37 33 30 25 20 18 17 18 17 15 15 12 11 11 9 7 6 5 3 1 0
259 232 242 264 270 278 311 62 44 35 55 308 281 272 253 224 217 205 203 233 241 225 225 227 221 222 195 171 173 174 176 182 187 194 197 198 199 201 202 201 200 199 200 198 201 202 201 203 202 203 207 202 201 201 197 199 196 195 194 188 188 186 183 181 178 175 159 145 130 115 92 79 63 34 37 37 33 26 24 21 17 17 13 14 13 11 11 10 9 8 6 5 3 3 1 0 360
240 252 248 262 270 272 265 104 98 82 215 235 246 277 296 226 242 233 220 233 240 236 252 259 100 219 172 167 171 176 186 190 191 197 198 199 200 201 201 199 197 196 197 198 199 200 199 200 201 203 205 200 199 198 196 200 196 194 197 190 188 191 185 182 189 187 167 158 145 127 115 103 85 35 33 30 25 16 17 18 13 13 11 9 10 8 7 7 6 5 3 1 360 360 359 359 358
227 260 261 272 284 278 278 223 149 185 230 239 261 1 282 233 244 253 240 240 239 245 259 232 110 90 125 155 174 183 191 195 200 203 202 203 203 203 201 198 198 196 196 197 197 198 197 198 201 202 204 201 197 194 196 200 191 190 199 190 186 192 185 185 194 190 179 175 161 147 143 133 120 52 35 21 19 11 12 15 11 11 9 5 7 6 4 3 2 2 0 358 357 357 357 357 356
224 251 259 267 283 270 271 243 183 202 228 241 270 273 246 237 255 273 257 253 243 237 244 228 168 137 140 162 183 190 196 201 205 206 206 209 208 206 204 201 199 196 196 195 195 197 197 197 199 201 202 200 196 194 197 197 187 192 199 189 187 189 183 191 195 188 191 186 170 170 166 156 166 85 37 14 16 11 11 13 8 8 7 2 2 3 2 0 358 358 359 357 354 353 353 355 352
222 258 282 293 291 283 269 248 218 211 221 206 232 251 249 244 265 270 259 255 251 240 237 229 193 178 185 181 186 193 200 204 206 206 207 209 208 206 205 204 201 199 198 196 194 197 196 196 198 199 199 199 197 195 195 193 191 198 196 190 192 187 187 196 189 184 200 197 180 180 179 171 182 151 32 5 11 9 9 10 6 6 4 358 358 1 359 356 355 357 358 354 349 348 348 349 346
314 298 303 296 286 283 269 260 241 217 219 198 208 245 254 235 198 253 258 253 236 230 234 231 212 208 209 201 197 195 202 207 206 203 203 203 203 206 205 203 205 203 198 196 196 196 195 194 195 197 197 198 198 195 192 191 196 198 191 193 195 190 194 195 185 188 201 202 189 184 185 182 188 185 178 1 6 5 9 7 4 3 359 356 358 357 355 355 355 356 355 348 344 342 341 341 343
330 326 308 284 275 270 253 251 244 220 221 200 196 251 266 222 193 243 252 249 190 212 225 228 220 223 215 210 211 200 206 210 204 199 197 200 203 205 203 203 205 203 199 197 195 194 194 193 193 193 194 196 197 194 190 192 197 197 194 196 195 195 198 192 188 196 202 205 197 192 189 186 202 202 191 69 12 5 9 5 5 3 352 353 357 354 353 355 353 352 350 343 339 338 336 339 340
302 331 302 283 280 270 254 245 228 205 207 176 159 271 265 225 222 241 249 241 212 217 226 224 219 225 219 213 216 211 213 206 199 201 204 206 206 205 204 206 204 201 201 198 193 195 194 193 192 190 192 193 195 193 190 193 196 197 197 198 198 199 196 192 194 199 205 206 200 200 195 191 207 212 213 223 25 1 5 2 2 357 343 348 354 351 351 352 350 349 346 339 337 339 339 339 333
266 255 258 280 293 272 256 245 210 184 178 149 140 259 253 234 230 234 247 240 213 222 231 226 221 224 221 217 220 221 215 204 201 206 209 209 208 206 206 207 205 201 200 195 193 196 194 192 191 188 190 192 192 192 191 192 194 197 197 198 202 201 195 194 196 198 207 208 201 203 200 199 211 211 227 268 341 345 355 355 355 345 333 345 350 348 349 349 348 347 342 336 338 341 338 334 328
255 270 254 258 280 274 273 245 170 163 168 152 150 247 251 262 252 231 237 229 195 214 226 221 221 221 225 223 224 226 215 210 212 211 210 209 209 206 206 205 203 201 197 194 195 194 192 192 190 187 190 192 191 191 193 192 194 197 195 198 204 200 195 195 195 198 205 209 205 202 201 205 214 213 226 272 307 328 340 341 343 328 328 343 347 346 347 347 347 344 338 336 338 336 331 328 325
219 251 268 234 221 266 280 155 160 167 177 172 162 241 251 256 265 252 230 205 184 210 223 218 221 222 227 229 227 227 223 219 217 215 212 210 210 206 204 203 199 199 197 195 193 191 192 191 189 188 189 191 189 190 193 193 196 197 195 200 203 195 193 194 196 199 200 207 211 206 202 206 216 221 230 260 287 305 317 322 325 320 329 343 344 345 346 346 345 339 337 338 333 327 324 324 323
213 195 245 243 233 266 270 183 188 171 126 189 197 231 259 236 246 275 173 184 188 210 223 219 222 224 229 235 233 225 225 226 220 217 212 208 210 208 204 201 199 198 197 194 191 190 190 189 189 188 190 191 187 187 191 191 194 195 193 199 199 191 191 192 196 199 197 200 211 214 208 207 218 227 235 248 259 280 296 309 319 323 333 342 342 343 343 344 343 338 337 333 324 319 319 320 321
239 211 236 243 238 258 261 277 245 183 136 200 214 232 256 248 246 270 220 194 198 210 227 235 238 241 242 244 241 228 220 224 222 213 207 206 207 207 204 202 200 198 196 194 191 190 189 188 188 188 189 189 186 186 188 189 191 190 190 196 197 191 189 192 196 197 198 198 205 217 214 209 222 230 235 244 250 271 291 309 320 329 336 339 340 339 339 340 341 337 327 319 315 315 315 317 320
251 249 260 261 250 254 258 276 219 183 179 217 217 229 250 255 257 263 260 243 229 224 227 244 251 253 254 252 249 242 223 223 223 206 202 203 203 203 203 201 199 196 193 192 191 189 188 186 187 188 187 186 185 186 186 186 186 185 187 191 194 191 188 192 198 198 199 200 205 215 216 214 228 233 233 241 253 273 294 311 320 329 333 336 335 334 336 337 334 326 313 311 315 317 316 318 322
259 267 271 270 272 268 264 273 193 179 193 221 221 232 249 256 250 250 258 255 250 245 232 239 248 251 254 253 250 244 233 231 216 198 196 197 200 200 199 197 195 193 189 188 188 187 186 184 184 185 185 185 185 185 184 182 181 182 185 189 191 191 190 191 197 199 198 202 209 214 213 215 229 235 235 245 258 272 291 306 317 327 330 331 330 330 332 328 321 314 311 313 320 323 323 323 324
255 265 268 266 269 270 270 277 216 185 194 223 226 234 249 258 256 250 256 258 259 259 250 247 249 253 257 257 255 244 241 236 188 184 189 191 196 196 193 191 188 186 186 186 185 185 186 184 184 184 184 186 186 185 184 183 182 182 184 190 191 192 193 192 194 198 199 204 213 215 210 212 225 233 237 245 256 270 286 302 315 324 326 325 325 325 322 317 313 313 316 319 321 322 321 321 325
254 259 268 273 265 266 275 278 212 180 198 240 243 249 255 259 262 257 255 255 255 256 256 257 254 256 261 261 260 250 238 182 148 165 176 182 189 189 187 185 183 182 182 184 184 185 187 186 186 186 185 187 189 189 188 187 189 189 190 193 193 192 194 197 197 197 200 206 213 215 210 213 221 228 234 241 251 265 280 297 309 317 318 318 318 317 314 312 312 312 314 315 316 312 308 313 325
263 270 275 275 269 273 281 274 168 144 191 250 257 262 263 264 263 260 255 252 251 248 249 255 256 258 260 259 261 253 199 143 149 154 164 176 180 180 181 182 183 183 183 184 185 185 186 186 188 188 188 189 191 192 191 191 192 194 195 195 193 192 194 200 202 200 202 207 212 213 211 216 221 224 230 238 247 261 276 289 302 309 311 313 313 312 310 306 304 304 308 309 308 303 299 305 318
246 252 262 264 262 269 279 260 166 176 208 247 274 273 266 268 266 258 253 250 251 249 247 252 256 257 257 255 259 244 186 164 165 163 168 173 173 177 180 181 183 183 183 184 185 185 186 188 190 190 191 191 191 192 193 192 191 190 193 193 190 191 190 192 196 197 201 205 210 210 209 214 220 223 229 237 246 260 275 286 297 303 306 309 307 305 301 297 297 301 306 302 294 291 292 299 305
239 220 230 252 257 253 257 262 232 217 227 248 303 289 264 250 251 252 249 243 246 247 243 247 252 257 259 257 258 234 180 170 175 176 176 173 174 180 182 182 182 183 186 186 186 187 188 190 192 192 192 192 191 192 191 189 185 181 179 176 176 178 178 179 182 187 195 202 206 208 208 211 216 222 228 237 248 263 275 284 293 298 301 302 298 296 291 291 293 295 297 291 285 283 284 292 297
261 212 218 242 256 259 264 288 340 324 276 227 24 305 273 211 220 247 245 218 232 236 233 236 240 253 261 261 255 226 177 178 182 181 179 176 179 181 182 183 184 187 190 190 190 190 190 192 192 193 193 192 192 191 189 187 184 181 177 172 170 172 173 181 187 190 195 199 203 206 207 210 214 219 226 236 249 259 270 279 287 292 295 295 291 287 283 284 286 287 289 285 281 279 280 286 291
272 226 224 248 262 270 270 289 325 256 264 238 104 333 286 252 219 243 247 210 222 223 229 236 232 242 255 259 256 217 177 186 187 183 180 176 177 178 184 189 190 193 193 191 191 191 192 192 192 193 193 192 192 190 189 188 186 185 185 183 182 182 182 189 196 199 202 203 201 202 204 207 211 217 224 234 245 253 263 273 281 286 288 288 285 279 277 278 281 283 284 278 276 277 279 281 285
264 231 229 264 268 268 257 259 237 229 292 278 150 145 277 279 243 216 223 214 228 230 229 244 241 234 240 252 259 217 181 189 183 181 182 180 184 184 188 194 195 196 194 192 192 193 193 193 192 193 193 193 192 191 190 191 190 189 190 190 190 192 192 194 197 197 201 200 195 195 199 204 210 215 222 229 237 245 254 263 272 278 280 281 278 274 274 277 279 280 277 272 272 275 277 278 281
247 190 113 102 120 253 128 226 246 276 322 279 184 148 258 281 265 184 205 205 222 232 227 240 247 241 233 238 251 227 188 191 182 178 185 184 187 189 191 194 196 197 194 193 194 194 194 193 193 193 193 194 193 192 193 194 194 194 193 193 193 195 196 196 194 188 187 188 188 190 195 201 207 212 218 224 230 237 245 254 261 268 271 272 271 270 274 276 277 277 275 274 276 276 276 274 276
219 150 89 83 101 41 92 230 258 336 286 245 194 155 226 279 275 156 190 204 213 227 226 232 241 248 241 226 235 224 187 187 184 179 184 183 185 188 189 189 192 196 196 196 195 194 194 193 193 193 194 194 194 194 195 195 197 197 196 196 194 193 191 189 186 182 182 185 187 190 194 198 203 209 216 221 226 230 236 245 252 259 264 265 267 270 275 277 277 277 278 281 281 279 276 273 273
159 138 80 41 276 10 65 238 101 328 270 241 193 181 195 272 284 139 176 198 197 209 215 227 240 250 250 232 222 208 177 176 177 172 171 168 176 180 180 182 188 193 194 195 195 195 195 194 194 194 194 195 196 196 197 197 198 199 200 199 195 191 186 182 181 181 185 188 190 193 195 198 201 206 213 217 221 226 232 241 248 254 258 261 266 272 276 280 281 280 280 279 276 274 275 275 275
124 127 124 332 299 12 31 310 93 230 267 231 181 185 191 234 258 143 204 205 193 201 196 209 228 240 247 237 213 188 165 163 160 162 160 152 161 169 173 179 183 188 190 193 195 194 195 195 194 194 194 196 197 197 199 199 200 202 202 201 197 193 188 186 185 186 189 192 193 195 194 195 195 199 205 210 217 226 232 238 243 249 254 260 267 273 277 278 275 273 271 271 271 271 271 272 272
149 139 139 155 279 312 308 252 141 225 257 225 178 181 200 238 246 215 240 220 195 206 200 197 210 227 239 221 186 160 149 156 159 164 164 161 168 172 174 178 180 185 190 193 194 194 195 195 195 196 196 196 197 198 199 200 202 203 203 202 200 196 194 194 193 192 194 195 195 194 192 191 191 194 200 206 214 222 228 235 239 246 251 255 259 262 264 264 263 265 267 268 269 269 270 270 269
178 161 149 165 209 249 248 242 242 244 258 253 183 173 215 266 248 203 222 225 203 203 207 201 200 220 233 200 165 152 151 160 167 173 174 173 181 183 182 182 183 189 192 193 194 193 194 196 197 198 198 197 197 199 200 201 203 204 204 204 202 200 200 200 200 199 199 199 198 196 195 194 194 197 202 204 208 214 222 231 237 243 247 250 254 257 261 264 264 267 268 268 269 270 271 271 271
196 177 158 193 199 217 241 233 246 261 281 276 175 163 222 272 208 190 207 222 216 207 206 206 216 224 214 159 151 159 166 174 176 181 186 186 184 187 191 190 190 192 193 193 195 194 195 197 199 199 198 197 198 200 201 202 203 204 204 205 204 203 203 204 204 204 203 202 200 198 196 197 198 198 200 200 203 211 220 229 236 242 247 251 256 261 264 265 266 267 268 267 269 272 273 273 275
217 157 157 231 205 189 244 254 250 275 317 273 213 209 241 268 274 229 215 225 222 218 210 204 226 232 189 157 175 183 184 188 186 187 194 195 189 190 196 198 197 196 195 195 196 196 197 200 201 201 200 198 198 200 202 203 203 203 203 204 204 204 204 204 204 204 204 203 202 200 199 199 199 197 197 200 205 212 220 228 237 243 249 254 259 262 263 264 266 267 268 269 271 274 275 275 276
187 140 193 228 174 164 221 266 272 289 283 270 255 253 272 300 285 244 219 222 213 208 209 204 223 230 203 194 207 207 202 194 191 192 195 197 194 195 199 201 200 199 198 199 199 199 200 202 202 202 201 199 199 201 203 204 203 203 204 204 204 204 203 204 204 203 203 202 202 203 202 200 200 199 200 203 209 215 223 232 239 246 251 256 260 262 263 265 268 270 271 272 274 277 277 276 276
133 178 216 202 29 101 174 258 299 267 257 271 274 271 282 290 283 263 194 212 207 197 201 208 221 222 206 210 222 222 208 192 194 197 198 201 199 200 202 203 205 203 203 204 203 203 204 205 205 203 201 200 200 201 202 203 203 203 203 203 204 204 204 204 205 204 203 201 201 202 202 202 202 203 204 208 214 220 228 236 242 247 251 256 261 264 266 269 270 273 275 275 277 280 279 278 279
134 225 262 106 117 246 167 175 228 243 249 269 277 279 278 260 263 297 242 203 201 200 201 208 217 212 201 215 232 234 203 181 195 200 200 205 205 205 205 204 206 206 207 209 207 206 207 209 209 207 206 204 201 200 200 202 203 203 203 203 204 204 204 204 203 203 202 201 201 201 202 203 205 206 208 212 218 225 232 238 242 245 250 255 262 265 268 272 274 275 277 277 279 279 277 276 277
79 358 347 77 169 178 180 191 200 224 240 264 278 282 278 256 247 264 237 194 190 199 202 210 215 207 202 212 229 233 205 194 203 202 202 207 208 209 206 203 203 205 207 208 208 209 210 211 210 210 210 207 204 200 199 200 203 203 203 203 203 203 203 202 201 201 201 201 202 202 202 204 205 207 210 215 221 228 233 237 239 244 250 255 260 264 268 271 273 274 274 274 275 274 272 274 276
180 236 255 224 204 152 233 247 221 217 229 245 258 269 271 262 159 218 205 179 189 196 198 215 220 213 210 208 220 225 213 213 213 207 208 209 210 210 206 205 205 204 205 206 208 211 212 213 213 211 209 207 205 202 199 199 201 201 202 201 201 201 200 200 199 199 200 200 201 202 202 203 204 207 211 216 223 228 232 235 237 242 248 253 257 260 264 266 266 268 268 268 270 270 272 275 277
186 201 211 210 206 196 243 249 230 216 227 235 238 257 264 261 76 80 160 170 194 190 181 197 203 216 224 216 217 218 213 216 216 215 214 209 209 207 202 201 199 200 203 205 207 208 210 212 213 213 210 207 206 204 200 199 198 199 201 200 199 198 198 197 196 197 198 198 199 200 200 200 202 206 212 217 223 227 230 233 237 242 247 250 254 256 258 259 261 264 265 265 268 271 273 276 278